sat.trackr.live / text

‹ back to catalog

HYPERION GR-1

NORAD 69883 · 2026-156Q

PAYLOAD ACTIVE UNKNOWN

§ Identity

Operator
Country
GREC
Launch date
2026-07-07
Launch site
AFWTR
Launch vehicle
Mass (kg)
RCS (m²)

External: N2YO · Heavens-Above · Gunter

§ Orbital elements

Epoch: 2026-09-19T22:55:49.321344Z

Period
96.57 min
Inclination
97.7457°
Eccentricity
0.0003767
Mean motion
14.91189497 rev/d
Perigee alt
591.6 km
Apogee alt
596.9 km
Semi-major
6,972.4 km
B*
5.7078e-5
RAAN
162.1072°
Arg perigee
261.2579°
Mean anomaly
98.8213°
Rev number
1,112

§ Raw data

HYPERION GR-11 69883U 26156Q   26262.95543196  .00000512  00000+0  57078-4 0  99922 69883  97.7457 162.1072 0003767 261.2579  98.8213 14.91189497 11128

JSON: /api/v1/satellites/69883 · /tle

For live sub-satellite position, see the globe view (requires WebGL).

§ Visibility from observer

Set your observer location to see the next 7 days of passes ≥ 10°. The values pass through the URL so the page stays shareable.

No JS? Fill the form by hand. The geolocation button needs JavaScript.